CZ-3B DEB, 40165

Orbit data source: Space-Track

CZ-3B DEB, 40165 is space debris in HEO originally from a launch on Sat, 04 Sep 2010 UTC launched from the Xichang Space Center, China (XSC). Debris objects in space refer to the collection of defunct objects orbiting the Earth. Examples of debris include non-operational satellites, rocket bodies, and fragments generated from explosions, collisions, or faulty payload assembly.

Loading next visibility...
Identifier
40165, 2010-042S
Orbit
HEO
Country
Flag of CNCN / PRC
Related business
Manufacturer
CALT
Mission
Spacecraft
Bus & Motor
Unknown
Mass
Unknown
Launch date (UTC)
2010-09-04 (15 years ago)
Launch vehicle
Unknown
Launch site
Xichang Space Center, China (XSC)
Object type
Payload
Rocket body
Debris
Shape & HBR
Unknown shape, 0.3 m
Radar Cross Section
Medium (>0.1 m² and <1 m²)

Expand to show TLE details & history
Last TLE update: 3 days ago

TLE from 3 days ago
0 CZ-3B DEB
1 40165U 10042S   25285.01858083  .00000326  00000-0  10451-1 0  9991
2 40165  27.0250 182.1843 7420426  74.0174   4.1739  1.92940136 99073
Epoch: 2025-10-12T00:26Z
TLE epoch observation values (Epoch: 2025-10-12T00:26:45.383Z)
Latitude
24.71032°
Longitude
-88.92515°
Altitude
1,429.387 km
Speed
9.355 km/s
True Right ascension
19h 54m 25s
True Declination
24° 35' 28"
Sunlit
Object was in daylight at epoch
Visualization orbit readout
Latitude
Unknown
Longitude
Unknown
Altitude
Unknown
Speed
Unknown
Apparent Right ascension
Unknown
Apparent Declination
Unknown
Sunlit
N/A
Visualization observer readout
Local Sidereal Time
13:50:33
Azimuth
Unknown
Elevation
Unknown
Doppler factor
Unknown
Orbital elements
Apogee altitude
41,108.509 km
Perigee altitude
653.569 km
Semi-major axis
27,259.176 km
Eccentricity
0.74204
Inclination
27.025°
RAAN
182.1843°
Arg. of periapsis
74.0174°
True anomaly
39.24898°
Mean anomaly
4.1739°
Eccentric anomaly
15.62548°
Mean motion
0.48225 °/min
Orbital period
746.5 mins
BSTAR
0.010451
Loading maneuver chart data...
Computing Atmospheric mass density...
Loading historical data...
Loading historical data...
Loading historical data...
Loading historical data...
Loading historical data...
Loading historical data...
Loading historical data...

Documentation

Showing up to 5 results
|